Hourly Data Report for April 23, 2020

TORONTO CITY
ONTARIO
Current Station Operator: ECCC - MSC

43°40'00.000" N
79°24'00.000" W
112.50 m
6158355
71508
XTO

Download Data

Hourly Data (April 2020)
Hourly Data Report for April 23, 2020
TIME
LST
Temp Definition
°C
Dew Point Definition
°C
Rel Hum Definition
%
Precip. Amount Definition
mm

Wind Dir Definition
10's deg

Wind Spd Definition
km/h
Visibility Definition
km
Stn Press Definition
kPa
Hmdx Definition


Wind Chill Definition


Weather Definition


00:00 0.2 -10.9 43 0.0       100.37     LegendNANA
01:00 0.3 -11.6 40 0.0       100.36     LegendNANA
02:00 0.1 -10.7 44 0.0       100.29     LegendNANA
03:00 0.3 -11.3 41 0.0       100.27     LegendNANA
04:00 0.5 -12.1 38 0.0       100.29     LegendNANA
05:00 0.3 -11.1 42 0.0       100.25     LegendNANA
06:00 0.5 -10.1 45 0.0       100.24     LegendNANA
07:00 0.8 -9.4 47 0.0       100.31     LegendNANA
08:00 1.9 -8.8 45 0.0       100.28     LegendNANA
09:00 2.6 -10.9 36 0.0       100.27     LegendNANA
10:00 3.9 -8.8 39 0.0       100.30     LegendNANA
11:00 3.0 -9.3 40 0.3       100.28     LegendNANA
12:00 2.7 -6.9 49 0.0       100.23     LegendNANA
13:00 3.7 -7.9 42 0.0       100.13     LegendNANA
14:00 4.4 -7.2 43 0.2       100.05     LegendNANA
15:00 4.4 -9.2 37 0.0       99.96     LegendNANA
16:00 4.9 -7.2 41 0.2       99.90     LegendNANA
17:00 4.3 -9.1 37 0.0       99.87     LegendNANA
18:00 4.5 -9.1 37 0.0       99.87     LegendNANA
19:00 4.3 -6.6 45 0.0       99.83     LegendNANA
20:00 4.7 -6.6 44 0.0       99.78     LegendNANA
21:00 4.9 -7.3 41 0.0       99.82     LegendNANA
22:00 4.7 -4.1 53 0.0       99.74     LegendNANA
23:00 4.9 -3.8 53 0.0       99.70     LegendNANA

Notes on Data Quality.

Legend

  • E = Estimated
  • M = Missing
  • NA = Not Available*
  • [empty] = Indicates an unobserved value
Date modified: